Regional Weather Roundup
Issued by NWS

Home | Current Version | Previous Version | Text Only | Print | Product List | Glossary Off
Versions: 1 2 3 4 5 6 7 8 9 10 11 12 13 14 15 16 17 18 19 20 21 22 23 24 25 26 27 28 29 30 31 32 33 34 35 36 37 38 39 40 41 42 43 44 45 46 47 48 49 50

000
ASUS43 KBIS 170702
RWRND

NORTH DAKOTA REGIONAL WEATHER ROUNDUP
NATIONAL WEATHER SERVICE BISMARCK ND
100 AM CST SAT FEB 17 2018

NOTE: "FAIR" INDICATES FEW OR NO CLOUDS BELOW 12,000 FEET WITH NO
SIGNIFICANT WEATHER AND/OR OBSTRUCTIONS TO VISIBILITY.


NDZ001>003-009>011-017-170800-
NORTHWEST NORTH DAKOTA

CITY           SKY/WX    TMP DP  RH WIND       PRES   REMARKS
WILLISTON      MOCLDY    17  10  74 N9        29.81R WCI   6
MINOT          CLOUDY    21  14  74 W9        29.76R WCI  11
MINOT AFB      CLOUDY    18  13  80 W9          N/A  WCI   7
$$

NDZ018>021-031>035-040>046-170800-
SOUTHWEST NORTH DAKOTA

CITY           SKY/WX    TMP DP  RH WIND       PRES   REMARKS
BISMARCK       CLEAR     21  17  84 W5        29.82R WCI  15
DICKINSON      CLEAR     14  12  92 W8        29.75R WCI   3
GARRISON         N/A     13  10  88 W10       29.77S WCI   0
HETTINGER ARPT PTCLDY    11   8  88 W8        29.79F WCI  -1
$$

NDZ004>008-012>016-024-026-027-054-170800-
NORTHEAST NORTH DAKOTA

CITY           SKY/WX    TMP DP  RH WIND       PRES   REMARKS
GRAND FORKS    FAIR      23  16  74 W12       29.76R WCI  12
GRND FRKS AFB  FAIR      23  14  69 NW10      29.76R WCI  12
DEVILS LAKE    FAIR      14  11  87 W12       29.75R WCI   0
$$

NDZ022-023-025-028>030-036>039-047>053-170800-
SOUTHEAST NORTH DAKOTA

CITY           SKY/WX    TMP DP  RH WIND       PRES   REMARKS
FARGO          MOCLDY    24  17  74 SW8       29.79F WCI  15
JAMESTOWN      CLOUDY    21  15  78 W10       29.77S WCI  10
$$





USA.gov is the U.S. government's official web portal to all federal, state and local government web resources and services.